Location: Unspecified
(0.0000°N, 0.0000°E)
Time: 03:44:42
(UTC+00:00)

Tiangong 1 - Pass Details

Date: 13 January 2017
Orbit: 344 x 365 km, 42.8° (Epoch: 19 January)

Event Time Altitude Azimuth Distance (km) Brightness Sun altitude
Rises 20:05:32 0° 217° (SW) 2,163 5.8 -27.0°
Reaches altitude 10° 20:07:37 10° 211° (SSW) 1,313 4.4 -27.5°
Enters shadow 20:07:45 11° 211° (SSW) 1,261 4.3 -27.5°
